Theta_e
340 341 342 342 342 341 341 341 341 342 342 341 342 342 342 342 344 345 344 343 342 343 342 343 342 342 343 344 344 345 345 345 345 346 346 346 345 344 345 345 346 347 347 347 347 348 347 348 348 348 348 347 347 348 349 350 350 350 350 350 349 350 350 350 350 350 351 350 350 350 349 348 349 349
340 339 340 340 340 340 340 340 340 341 342 342 342 342 342 342 342 343 344 344 342 342 342 342 343 342 343 344 345 345 345 344 345 347 347 346 345 345 345 346 347 347 348 348 348 348 348 349 349 349 349 349 348 349 349 350 351 350 349 349 349 350 350 350 350 350 349 349 349 349 349 349 349 349
339 340 339 340 340 339 339 339 339 340 341 341 341 341 341 342 342 342 343 344 343 342 342 342 342 342 343 344 345 345 345 344 345 346 346 346 346 345 346 347 348 348 348 349 348 349 348 348 349 349 350 350 349 349 350 350 350 349 349 349 348 349 349 349 349 350 349 349 348 348 348 348 348 349
340 340 339 339 339 339 338 338 338 339 339 340 341 341 341 342 342 342 342 344 344 342 342 342 342 343 343 344 344 345 344 345 345 345 345 345 345 347 347 346 346 347 347 348 346 345 346 348 348 348 349 350 351 351 351 351 350 350 350 350 349 349 349 349 349 349 350 349 349 348 347 347 348 349
339 340 340 339 340 339 338 338 338 338 339 339 339 340 341 341 342 342 342 343 343 343 342 342 342 342 343 344 343 343 343 344 345 346 345 344 345 347 347 345 343 344 345 344 343 343 345 346 347 347 348 349 350 351 352 352 352 352 352 352 351 351 350 349 349 349 350 350 350 349 348 348 347 349
339 339 339 339 339 339 338 338 338 338 338 338 339 339 340 340 341 341 342 342 343 343 343 342 342 343 343 343 343 342 342 341 342 344 346 345 345 345 345 345 344 344 343 343 342 343 344 346 347 347 348 348 349 351 351 352 352 351 351 350 350 351 350 349 350 350 351 350 350 350 349 348 348 348
338 339 338 339 339 339 338 338 338 338 337 337 337 338 339 340 340 341 342 342 343 343 343 342 342 342 342 342 342 341 341 341 341 344 347 347 346 345 346 347 347 345 343 343 343 343 344 346 347 347 347 348 349 350 351 350 350 350 350 349 349 349 349 349 350 350 350 350 350 349 349 349 348 348
338 338 338 338 338 338 338 338 338 337 337 337 337 338 338 339 340 340 341 341 342 342 343 343 342 342 342 342 342 341 341 342 343 345 347 347 347 347 348 348 347 345 345 344 344 344 343 344 346 347 347 348 348 349 349 349 349 349 349 348 348 348 347 348 348 349 349 349 349 350 350 349 349 348
337 337 337 338 338 339 339 338 338 338 338 338 338 338 338 338 339 340 340 341 341 341 342 342 342 342 341 341 342 342 342 343 344 347 347 347 348 348 348 347 347 346 346 346 345 344 343 342 343 345 346 347 348 348 348 348 349 349 350 349 349 349 348 348 348 348 349 349 349 350 350 350 349 348
336 337 337 338 338 339 339 339 339 338 338 338 338 338 338 338 338 339 339 339 340 340 341 342 342 342 341 342 342 342 342 344 345 346 347 346 346 346 346 346 346 346 346 346 345 343 343 342 342 344 346 348 348 348 348 348 349 350 351 351 351 351 350 349 348 349 349 350 350 350 350 350 349 349
336 337 337 337 338 339 339 339 339 339 338 338 338 338 338 338 338 338 338 338 339 339 340 341 342 342 342 342 342 342 343 344 344 345 345 345 345 344 345 344 344 344 345 345 344 343 342 342 342 344 346 348 348 348 348 348 348 348 350 352 352 351 350 349 349 350 350 350 350 350 350 350 350 349
335 336 337 336 337 338 339 339 339 339 338 338 338 338 338 337 337 337 338 338 338 339 339 340 341 341 341 342 341 342 342 343 344 344 344 344 343 343 343 343 343 344 344 343 342 342 342 342 343 343 346 347 347 348 349 348 347 347 348 351 352 350 350 350 350 351 351 350 350 350 350 350 351 348
333 334 336 336 336 336 337 337 338 338 338 338 338 338 338 338 337 337 337 337 338 338 339 339 340 341 341 341 341 342 342 343 343 343 343 343 343 342 343 343 343 344 343 342 342 342 343 343 343 344 346 347 348 349 349 348 347 347 348 351 352 350 351 351 351 351 351 351 350 350 350 350 349 347
331 332 334 335 335 336 336 336 337 337 337 337 338 338 338 338 338 337 338 338 338 338 339 339 340 340 341 341 341 341 342 342 342 342 342 342 342 342 342 343 344 343 342 343 343 342 342 342 344 345 345 346 348 349 349 348 347 348 349 351 351 352 351 351 351 351 350 350 350 350 350 350 348 347
331 332 333 334 335 336 336 336 336 336 336 337 337 338 338 339 338 338 338 338 338 338 339 339 340 340 341 341 341 341 341 341 341 341 341 341 342 342 343 344 344 342 341 342 343 342 342 342 344 345 345 346 347 348 349 348 346 347 349 351 352 352 352 352 350 349 349 348 348 348 349 348 347 347
331 332 333 334 335 336 336 336 336 336 336 336 337 337 338 338 339 338 338 338 338 338 339 339 340 340 340 341 341 341 341 341 340 341 341 341 342 343 343 344 343 342 340 342 343 344 343 344 345 345 346 345 345 346 348 347 344 344 347 349 351 352 352 352 350 349 347 346 346 347 347 346 346 345
333 333 334 335 335 336 336 336 336 336 336 337 336 336 337 338 338 339 338 338 338 338 338 339 339 340 340 341 340 340 341 341 340 341 341 341 342 342 343 343 342 341 341 343 344 345 344 344 345 345 345 345 345 345 347 347 344 343 344 345 348 350 351 351 350 350 348 346 346 346 345 345 345 345
331 332 334 335 336 337 337 337 338 337 338 338 337 336 335 335 337 338 338 338 338 338 338 339 339 339 340 340 340 340 341 340 340 341 341 341 342 342 342 342 341 341 342 342 344 345 345 345 345 345 345 344 345 346 347 346 344 343 342 343 346 349 350 350 350 350 350 349 348 348 347 347 347 349
325 327 329 331 333 335 336 337 337 338 338 338 339 338 336 335 335 336 337 338 338 338 338 338 338 339 339 339 340 340 340 341 341 341 340 341 342 341 341 341 341 341 342 342 343 345 345 344 345 345 344 344 345 346 347 346 343 342 342 342 345 348 350 350 350 350 351 350 350 350 350 349 349 350
321 323 325 327 328 331 334 336 336 337 338 338 339 339 337 335 335 335 336 337 338 338 338 339 339 338 339 340 340 340 341 341 340 340 340 341 341 341 342 342 342 342 343 343 344 346 345 344 344 345 344 343 345 347 347 345 343 342 343 342 342 345 346 348 349 349 349 349 349 349 349 348 348 347
320 320 322 324 325 327 330 333 336 338 338 339 339 338 338 336 336 336 336 337 338 338 338 339 339 339 339 340 340 340 341 340 340 341 341 341 341 341 342 343 343 343 344 344 345 345 345 345 345 345 344 344 345 346 346 345 344 343 342 341 341 342 343 344 345 345 345 346 345 346 346 347 346 344
319 319 320 321 323 324 327 330 333 336 337 338 339 340 339 338 337 337 337 337 337 338 338 339 339 340 340 340 340 340 340 340 340 341 341 342 342 342 343 343 343 343 344 344 344 344 344 345 344 345 344 344 345 346 345 344 344 343 340 339 340 340 341 341 342 342 342 343 343 343 344 345 345 343
319 319 318 319 321 322 325 327 330 333 335 337 338 340 340 339 338 338 338 338 337 337 338 338 338 339 339 340 340 340 340 341 341 342 342 342 342 342 343 344 343 344 344 344 344 344 345 344 344 344 344 344 344 345 345 345 344 342 340 340 339 339 339 339 339 340 340 340 341 342 343 344 345 343
321 320 318 318 319 320 323 325 328 330 332 335 336 337 338 338 338 338 339 338 338 337 338 337 338 339 339 340 341 341 341 342 342 341 341 341 342 343 344 344 344 345 344 344 344 345 345 345 344 344 343 343 343 344 344 345 344 343 342 340 339 339 339 338 337 338 339 339 339 340 341 343 344 342
322 321 320 318 318 319 320 323 326 327 328 331 332 333 335 335 336 337 338 339 339 338 338 338 338 338 339 340 341 341 342 342 341 341 342 343 344 344 344 343 343 343 344 344 345 346 345 343 344 344 342 342 342 342 342 343 344 343 343 341 340 339 339 339 338 338 339 339 338 339 340 341 342 342
324 323 321 320 318 319 318 319 322 324 326 327 328 328 331 334 335 335 336 338 338 338 338 338 338 339 339 340 340 341 341 341 341 342 343 344 345 344 344 344 343 343 344 344 344 346 344 342 342 343 343 343 342 340 340 341 342 342 342 341 340 339 339 339 338 339 339 338 338 339 340 341 341 343
325 325 325 322 320 319 318 319 320 321 322 325 327 326 328 331 334 335 335 336 338 338 338 338 338 338 339 339 340 340 340 340 341 343 343 342 342 341 341 342 342 341 342 343 343 344 344 343 343 343 344 343 341 340 339 340 341 340 340 340 340 339 339 339 338 339 338 338 339 340 341 341 341 342
328 327 327 326 323 320 318 319 321 321 320 321 324 326 326 328 331 333 333 335 336 337 338 337 338 338 338 338 339 340 339 338 339 340 339 337 336 335 335 337 337 337 339 342 343 342 342 343 343 343 344 343 342 341 341 341 340 339 339 339 339 338 339 339 339 339 338 338 338 339 339 340 340 340
329 328 328 327 325 322 321 321 322 323 321 320 321 323 324 326 327 328 329 330 330 331 332 333 333 334 335 336 337 337 336 336 335 336 335 335 334 334 333 334 334 336 338 342 343 342 342 342 343 343 344 343 342 342 342 342 341 340 339 339 338 338 339 339 339 339 338 337 338 338 338 338 338 338
329 328 328 328 328 326 325 325 324 325 324 321 320 320 321 322 323 324 325 326 326 326 327 328 329 330 332 334 335 335 334 333 334 334 334 336 338 339 337 336 337 338 340 342 343 343 342 342 342 343 343 342 342 342 342 342 342 341 341 340 340 339 339 339 340 339 338 337 337 337 337 338 337 337
328 327 327 327 327 326 327 327 327 327 326 324 321 319 319 320 322 322 322 323 323 324 326 326 327 328 330 333 334 334 333 333 333 333 333 335 339 340 339 338 338 338 340 340 341 342 342 342 341 341 341 342 342 342 342 342 342 342 341 341 341 340 339 339 340 340 339 337 336 336 336 337 337 337
325 325 324 323 324 324 324 324 325 327 328 327 324 322 320 321 323 322 320 320 321 322 324 325 325 326 327 329 330 330 331 331 332 333 333 335 337 336 336 335 335 335 337 338 339 340 342 341 340 339 340 341 341 341 341 340 341 341 341 341 340 340 339 339 339 339 339 338 336 335 335 335 335 335
321 322 322 321 322 322 323 323 323 324 326 327 327 325 324 324 324 323 322 321 320 320 321 322 322 323 324 324 325 327 328 328 329 330 332 335 335 333 333 332 331 332 334 336 337 340 341 340 340 341 340 340 339 339 339 339 339 339 340 340 341 340 340 340 339 338 338 337 336 335 335 335 336 335
320 320 320 321 322 322 323 323 322 323 324 326 328 328 327 326 326 325 325 325 322 319 319 320 321 320 321 322 322 323 325 326 327 328 329 331 332 332 331 330 329 329 331 332 335 338 340 339 341 341 340 340 339 340 341 341 340 341 341 341 341 341 341 340 339 339 339 338 337 336 335 336 336 336
319 320 320 321 321 322 322 323 322 322 324 326 327 328 328 327 327 326 326 326 324 322 321 322 322 320 320 321 321 322 323 324 325 325 327 328 330 330 330 329 328 328 329 329 331 335 338 339 340 341 340 339 340 341 341 341 342 342 342 342 341 341 341 339 339 339 339 339 338 337 337 337 337 337
320 320 320 321 321 321 322 322 322 322 323 325 326 327 327 327 327 326 326 326 326 325 325 325 323 322 322 322 323 323 324 324 323 324 326 328 329 329 327 326 325 325 325 325 326 328 332 335 338 340 338 337 338 338 337 338 341 341 341 340 340 339 339 339 339 339 338 338 339 338 338 338 337 337
321 321 321 320 320 320 321 322 323 322 323 324 325 326 326 326 327 327 326 325 325 326 327 326 324 324 324 324 324 324 324 324 324 324 325 326 328 328 326 323 322 322 323 323 322 323 324 327 331 333 333 334 335 333 332 335 337 336 335 336 337 337 337 338 338 338 338 339 339 338 338 337 336 336
319 319 319 318 318 318 318 320 321 322 322 323 324 325 325 325 325 326 327 325 324 324 326 326 326 325 324 324 324 324 324 324 324 324 324 324 326 327 325 323 323 323 322 321 321 321 321 321 323 325 326 328 330 330 329 330 331 329 329 331 333 335 337 337 337 338 338 338 338 337 337 337 336 335
315 315 314 313 313 313 314 315 317 319 320 322 323 324 325 325 325 325 326 326 325 324 324 325 325 325 325 325 325 325 325 325 324 324 324 324 326 327 326 324 322 322 322 322 321 321 320 320 321 323 323 325 326 325 324 325 325 324 326 328 329 332 334 334 334 336 336 336 336 336 335 335 334 333
309 308 307 306 307 307 309 311 313 315 317 318 320 321 323 325 325 325 325 326 326 326 325 325 325 326 326 326 326 325 326 325 325 324 324 324 325 326 327 326 324 322 322 322 322 322 322 322 322 323 323 323 323 322 321 321 322 323 325 327 327 330 331 331 332 333 334 335 335 335 333 333 332 329
303 303 303 303 304 304 306 307 310 312 313 315 315 316 317 319 321 321 322 323 325 325 325 325 325 325 326 326 326 326 326 325 324 324 324 324 324 325 325 326 326 325 323 321 322 322 322 322 321 321 321 321 320 320 321 323 323 323 325 326 326 325 326 327 328 328 329 329 330 331 330 329 327 324
301 302 302 303 303 304 304 305 306 308 310 311 312 313 313 314 315 316 318 319 320 321 322 323 324 324 325 325 325 325 325 326 325 325 325 324 324 324 324 324 326 325 323 322 322 322 322 322 322 321 320 320 320 320 322 324 322 322 323 325 325 322 322 323 323 323 323 323 324 324 324 323 324 323
300 300 301 302 303 304 304 305 305 305 306 307 309 310 311 311 312 313 314 315 315 316 317 319 321 323 324 324 322 322 323 324 325 325 326 325 324 324 324 323 324 325 325 323 321 321 322 322 322 320 320 320 320 320 320 321 321 320 320 322 322 321 320 320 320 321 322 322 321 320 319 320 322 324
297 296 297 298 300 302 303 304 304 304 304 305 305 306 307 308 308 308 309 310 311 312 314 316 318 320 321 322 322 323 323 323 323 324 326 326 325 324 324 323 323 325 325 324 322 321 322 322 321 320 321 320 320 320 320 320 320 321 320 320 320 320 319 320 320 320 320 320 319 319 318 318 319 320
294 294 294 295 297 298 299 300 301 303 304 304 304 303 303 304 305 306 306 307 308 309 311 312 314 315 318 320 321 322 323 323 323 324 325 326 326 326 325 325 324 324 324 324 322 322 322 322 321 320 320 320 320 320 320 320 320 320 320 320 320 320 320 320 319 319 319 319 319 318 318 318 318 318
Wind_Speed
31 31 32 31 32 32 31 32 33 33 33 32 30 28 25 18 10 8 9 7 8 16 21 21 23 23 22 21 19 18 18 18 19 21 23 23 22 21 20 19 19 18 19 19 20 21 22 23 23 24 25 26 27 28 28 29 29 29 29 29 29 29 29 28 27 26 25 25 25 24 24 23 21 20
31 31 32 31 30 30 30 31 34 33 32 31 31 30 30 26 17 12 10 8 11 15 18 21 21 19 18 16 14 14 14 13 15 18 20 21 20 18 16 16 16 17 17 18 19 20 20 22 22 23 24 25 26 27 27 28 29 29 29 29 28 29 29 28 26 25 25 25 25 25 25 25 23 22
31 29 31 31 29 29 30 31 33 34 34 32 31 31 30 29 27 22 14 10 14 18 18 21 23 20 19 16 13 14 12 11 12 14 16 17 17 16 15 15 15 16 17 17 17 18 18 19 20 21 22 23 24 25 26 27 28 28 28 28 28 28 28 27 27 27 26 25 25 26 26 26 25 24
31 30 30 31 30 29 30 31 32 34 35 34 33 32 31 30 29 28 20 12 14 21 22 21 22 21 20 18 16 15 13 12 12 13 14 15 15 15 15 16 17 17 18 17 18 18 19 19 19 19 20 21 22 24 25 26 27 27 27 28 28 29 29 29 28 28 27 26 26 26 26 27 26 25
32 32 32 32 32 31 30 30 32 33 34 34 33 33 31 30 30 29 25 17 15 22 25 24 24 22 20 20 20 18 17 17 16 15 16 16 16 17 16 17 18 19 19 19 19 20 20 20 20 20 20 21 22 23 25 26 26 27 27 28 29 30 30 30 29 28 28 27 27 26 26 27 27 26
33 33 34 32 32 33 31 30 30 29 30 32 33 33 31 31 32 30 28 23 18 19 23 25 25 24 24 25 25 24 23 22 20 19 19 19 19 18 18 19 20 20 20 21 21 21 21 21 22 22 22 22 22 23 24 26 27 27 28 30 30 31 30 29 29 28 28 27 27 26 26 27 27 27
34 34 35 34 34 34 31 30 29 28 29 30 31 32 32 32 32 32 31 28 22 20 23 25 25 25 26 28 28 27 24 22 20 21 20 20 20 20 21 22 21 21 21 21 21 22 22 22 22 22 22 22 22 23 24 26 27 28 29 30 30 31 30 30 29 29 28 27 27 27 26 27 27 27
34 34 35 36 37 35 33 32 32 31 31 32 32 32 32 32 33 33 33 32 28 23 23 25 27 25 25 27 28 25 22 20 20 20 21 21 22 22 22 23 22 21 21 21 22 22 22 22 22 22 22 22 22 22 23 25 26 27 28 29 30 31 31 31 31 31 30 28 27 27 26 27 27 28
32 33 34 36 37 36 34 34 33 34 33 33 33 32 32 32 32 32 33 32 31 28 26 26 26 24 23 25 26 23 22 21 20 20 21 22 22 23 23 23 23 23 22 22 22 23 23 23 23 23 23 22 22 22 22 22 23 24 27 29 30 30 31 31 31 31 30 28 27 26 26 27 28 29
31 32 33 34 35 36 35 35 34 33 34 33 33 33 32 32 32 32 32 31 30 30 30 28 24 23 23 23 23 23 22 21 21 21 21 21 22 23 24 25 25 24 24 23 23 23 23 23 23 23 23 23 22 22 20 20 20 21 24 26 27 28 29 29 29 28 28 27 26 26 26 27 28 28
29 30 31 31 33 34 35 36 35 34 33 33 34 34 33 31 31 31 31 31 30 30 29 27 25 25 25 23 22 22 21 21 21 20 19 20 22 23 25 26 26 25 24 24 24 24 23 23 23 23 23 23 23 22 20 19 18 20 22 23 24 25 25 26 25 25 25 25 26 26 27 27 28 27
28 30 31 31 31 33 35 36 36 35 35 34 33 33 33 31 31 31 30 29 30 30 27 26 25 25 25 24 22 20 18 17 18 20 20 21 23 24 24 25 25 24 24 23 22 22 22 22 22 22 23 23 22 21 20 19 19 19 20 22 22 22 23 23 23 24 24 25 26 26 27 27 27 27
28 30 32 34 34 35 37 37 37 37 37 35 33 32 33 32 31 31 30 29 29 29 25 24 23 22 22 24 22 19 19 20 20 21 20 21 23 23 22 24 25 23 22 22 21 21 21 21 21 21 22 22 21 21 20 19 18 19 19 21 21 20 21 21 22 22 23 24 25 25 26 26 26 25
29 30 32 35 37 38 38 39 40 40 40 39 37 35 34 34 33 31 29 28 28 28 24 23 22 19 19 24 24 22 23 24 24 20 17 18 20 18 17 21 23 22 21 21 21 22 21 20 21 21 22 21 20 20 19 17 17 17 17 19 20 19 19 20 20 21 21 21 22 23 24 24 24 24
28 30 32 33 36 38 38 39 40 42 43 44 43 40 38 37 37 35 32 29 29 28 25 24 23 20 20 25 27 25 24 24 24 22 20 18 15 12 11 12 15 17 16 17 18 20 19 18 20 21 21 20 19 18 16 16 15 13 13 15 17 17 18 18 17 18 18 19 20 21 22 22 23 23
27 27 29 30 32 36 38 39 40 42 44 46 47 46 43 42 41 40 38 34 32 31 28 25 24 24 24 26 27 26 25 25 24 21 19 18 16 14 12 11 13 14 13 12 13 15 16 15 17 19 19 18 17 16 15 15 14 13 12 13 14 15 16 15 15 15 16 18 20 21 22 22 22 22
25 25 27 29 31 33 35 38 40 42 43 44 47 48 48 46 45 44 44 42 38 36 33 28 27 28 29 27 27 29 28 25 22 18 16 17 17 16 15 17 20 18 15 12 10 11 15 16 16 17 18 16 15 15 15 14 14 13 13 14 14 15 15 15 14 15 16 17 18 19 19 19 19 18
12 16 21 25 28 29 31 34 37 40 40 40 41 44 46 48 47 46 46 46 43 40 37 32 32 32 32 31 31 31 29 26 23 21 19 19 17 17 19 21 21 19 17 15 11 10 14 15 14 15 15 14 14 15 14 14 13 12 12 13 14 15 15 15 14 15 15 15 15 15 15 16 17 18
20 17 15 17 21 25 28 31 34 36 37 37 38 39 42 45 46 45 46 46 46 45 41 38 36 35 34 35 34 31 28 25 24 22 20 18 17 17 18 17 17 18 19 18 13 10 11 12 11 12 12 12 12 13 13 13 12 11 10 11 12 13 13 14 13 13 13 13 13 13 14 15 16 17
28 26 22 19 16 17 22 27 32 35 37 38 37 36 39 41 42 43 45 46 46 45 43 40 38 35 34 34 33 31 28 25 22 20 17 15 15 14 12 12 13 15 16 18 17 12 10 10 9 8 9 10 10 13 15 13 11 10 9 9 10 11 13 13 13 13 12 12 12 13 13 13 14 15
26 28 29 28 24 18 15 17 23 28 33 37 35 32 34 36 36 38 41 43 45 45 44 42 39 35 33 32 31 29 26 23 21 19 17 16 15 14 11 10 12 13 15 19 20 13 9 9 9 6 7 8 10 13 15 14 12 10 10 10 10 10 12 12 13 14 14 14 13 13 13 14 15 16
23 27 30 33 32 29 23 14 12 16 23 31 33 30 28 29 31 32 34 37 40 43 42 41 39 35 32 30 28 26 25 22 21 21 20 19 17 15 13 12 12 12 14 17 18 13 9 9 8 6 6 6 9 11 11 11 12 10 9 9 10 10 11 12 12 13 13 14 14 14 14 15 17 19
22 27 30 32 32 32 31 24 15 9 9 19 26 26 26 27 29 32 33 33 37 39 39 38 36 33 30 28 26 25 23 21 20 21 23 22 19 17 16 15 12 8 9 15 19 14 10 10 10 8 6 4 6 10 11 11 12 11 9 8 9 10 11 11 12 12 12 12 14 15 16 16 18 21
22 26 29 31 32 31 32 31 26 19 10 3 12 16 19 21 23 28 32 34 35 37 37 35 33 31 28 27 25 24 22 20 20 21 23 23 22 18 15 15 14 9 5 12 18 16 11 12 12 11 9 5 4 7 11 12 12 11 10 9 9 9 10 10 9 10 10 11 12 14 16 16 16 19
21 24 26 29 30 30 30 30 29 27 22 14 8 6 10 13 15 19 26 29 31 34 34 32 31 29 27 26 25 24 22 21 21 22 22 23 22 19 17 18 18 14 7 7 14 16 12 11 12 13 12 7 4 6 9 12 14 13 11 10 10 10 10 9 8 8 9 10 10 11 14 14 15 15
19 20 22 24 27 28 28 27 27 26 25 22 19 14 6 8 11 14 19 22 24 26 27 27 28 27 26 25 24 22 21 21 22 23 22 21 20 19 19 19 18 16 11 7 10 14 15 13 14 16 14 8 5 6 7 9 12 13 12 11 11 10 10 10 9 8 9 10 10 10 11 12 14 14
17 18 19 20 23 24 24 23 24 24 23 23 21 19 16 11 8 11 16 21 23 23 22 22 24 23 23 23 22 20 21 24 25 24 21 19 19 18 17 16 14 12 11 8 8 13 16 17 17 18 17 12 7 6 7 6 8 12 13 13 12 11 11 11 9 8 10 12 12 11 10 9 10 11
15 17 18 17 18 20 20 19 21 23 23 23 21 20 21 19 16 13 11 14 18 21 21 20 19 19 21 23 23 21 20 20 20 19 16 16 16 15 14 14 12 11 10 10 10 12 15 17 18 19 20 16 11 8 7 6 7 11 13 12 12 13 12 11 10 10 11 13 13 13 12 10 11 12
15 16 16 15 15 16 17 18 20 21 22 22 19 18 20 22 22 22 21 20 16 14 16 18 15 14 16 19 21 19 16 14 14 14 14 13 14 14 14 13 13 13 14 14 13 13 14 15 16 18 21 21 16 12 9 7 6 8 10 10 10 12 13 12 11 11 12 13 14 14 13 12 12 12
15 15 15 15 14 15 16 16 17 18 19 19 18 16 18 20 22 23 24 26 24 21 20 22 19 16 15 16 17 17 15 15 14 13 13 13 13 15 17 16 15 15 15 15 13 13 15 17 16 16 20 21 19 15 12 9 6 6 8 9 7 7 10 12 12 11 11 12 13 14 14 14 13 13
14 15 14 14 14 15 15 15 16 15 15 16 17 16 17 18 18 19 20 21 22 22 23 25 23 20 18 18 18 17 14 11 10 10 10 10 11 13 15 15 14 12 11 13 14 14 15 17 16 15 17 18 17 16 14 11 8 7 8 9 8 6 7 10 13 13 11 10 10 12 14 16 16 16
15 15 14 13 13 14 14 16 17 16 14 14 15 15 15 16 16 15 16 17 18 19 20 22 23 21 20 19 18 17 16 14 11 8 7 9 9 9 10 10 11 11 9 10 12 13 13 13 13 12 12 12 13 13 13 11 11 11 9 9 10 9 7 8 10 12 12 12 10 10 11 13 15 17
16 17 17 17 16 15 15 17 18 17 15 13 12 13 13 14 14 15 15 15 15 14 15 16 17 17 17 16 17 17 17 15 13 10 8 8 9 9 9 8 9 10 9 7 8 11 11 10 11 11 10 8 7 8 9 10 11 12 11 10 10 10 10 10 9 10 11 12 12 11 10 11 12 13
17 19 19 19 19 16 15 15 16 16 14 12 11 10 11 11 11 12 13 14 13 12 13 14 13 13 12 12 13 15 15 13 12 11 9 7 8 9 10 10 9 9 10 8 6 9 11 10 10 10 10 9 7 5 6 8 9 10 11 11 10 10 11 11 11 11 10 10 10 9 8 9 10 10
17 19 19 19 20 18 16 14 14 13 12 11 11 10 10 11 11 11 11 12 12 12 13 13 12 11 11 10 10 9 10 10 11 11 10 8 9 11 13 13 12 11 12 11 8 7 8 10 11 9 7 6 5 4 5 6 7 9 10 11 10 10 9 10 11 12 11 10 9 8 7 7 8 8
17 18 18 18 19 19 18 16 15 13 11 10 10 11 11 11 11 10 10 10 10 10 11 11 11 10 10 10 9 8 8 9 10 10 10 9 10 12 14 15 14 13 13 11 10 9 8 7 9 10 7 4 2 2 2 3 4 6 8 9 9 9 9 8 9 10 10 10 11 10 8 6 6 6
17 18 19 20 20 20 19 18 16 16 15 12 10 11 12 11 10 8 7 8 8 8 8 9 10 11 11 11 10 9 8 9 9 9 9 9 9 11 14 15 14 13 13 11 9 8 7 6 5 6 5 3 2 2 2 3 4 4 4 4 6 8 9 8 8 8 9 10 11 11 9 7 6 6
17 17 19 20 21 21 22 21 20 20 21 18 13 10 9 9 9 8 6 5 6 6 6 6 6 7 9 10 11 10 8 7 7 8 8 7 6 8 12 13 12 11 10 10 8 6 5 4 3 2 3 3 2 1 2 4 5 4 2 2 4 6 8 8 8 8 8 9 9 9 8 7 6 6
17 17 17 18 19 21 22 23 23 23 24 23 19 14 11 8 8 8 6 4 4 4 4 3 2 2 3 5 6 5 4 4 5 5 7 7 6 8 11 12 12 10 9 9 9 8 6 5 3 2 3 4 4 3 3 4 3 1 1 2 4 6 7 7 7 8 9 8 8 8 8 8 7 6
16 18 20 21 22 23 24 25 26 25 25 25 24 21 18 14 12 10 8 5 3 1 1 2 3 3 2 2 2 1 1 3 4 5 7 7 7 8 10 11 12 11 10 10 11 10 9 7 6 5 6 6 6 5 4 3 2 1 0 2 4 6 6 7 8 9 9 10 10 9 8 8 7 5
20 24 27 28 27 27 26 27 27 28 27 27 26 25 25 23 21 18 15 12 9 7 4 2 4 6 6 7 6 4 4 6 6 6 7 8 8 8 9 10 11 12 12 12 12 12 11 9 8 8 7 6 6 5 4 3 3 1 2 4 6 6 7 7 7 8 9 11 12 10 8 8 7 6
27 29 31 32 31 31 30 29 29 29 29 28 27 27 27 26 24 22 21 19 18 16 14 11 7 4 3 5 7 6 6 8 8 8 8 9 9 11 11 12 13 14 14 14 12 11 11 11 10 9 7 5 5 4 2 3 5 4 5 7 7 6 6 7 8 8 8 9 9 9 8 7 6 5
29 30 31 32 32 32 32 31 31 31 31 30 29 28 27 27 26 26 25 24 23 21 20 17 14 11 9 7 5 4 5 6 6 7 7 7 8 11 13 14 14 15 16 15 11 9 11 12 11 10 7 6 5 4 3 4 5 5 6 7 7 5 5 5 6 7 7 7 7 7 7 6 4 4
27 28 29 29 31 31 31 31 31 31 31 31 31 30 30 29 29 29 28 27 26 24 23 21 18 15 14 13 10 5 3 7 8 6 4 5 6 7 9 10 11 12 15 14 11 10 12 14 13 11 9 7 6 5 5 6 6 5 5 6 6 5 4 4 4 4 5 5 5 5 7 7 6 5
26 27 28 28 29 30 30 30 30 30 30 30 30 31 31 30 30 30 29 28 28 27 25 24 22 20 17 14 12 10 6 5 6 6 5 5 6 7 8 9 10 11 13 13 12 11 14 15 15 13 12 10 8 8 7 7 8 7 7 5 5 4 3 3 2 3 3 4 5 5 5 6 6 5
Wind_Direction
251 248 244 239 239 242 241 240 241 238 236 236 234 232 230 232 237 247 249 238 243 249 242 242 251 255 254 253 252 253 260 265 263 259 257 258 259 259 259 260 263 267 269 270 271 270 270 270 269 267 264 262 261 261 262 261 259 259 260 260 259 258 258 261 262 262 261 260 260 261 260 259 259 259
252 248 246 243 240 240 239 240 241 240 240 238 236 235 235 233 232 237 249 247 242 245 241 238 241 245 247 246 249 255 264 272 269 262 258 256 256 257 257 260 263 267 268 269 270 270 269 268 267 266 263 260 259 259 260 260 259 260 260 259 258 258 258 260 260 260 259 259 258 257 257 256 255 255
250 245 245 243 240 238 237 238 241 241 241 239 237 236 235 234 232 232 238 250 247 241 239 241 239 240 244 248 253 257 260 267 270 265 258 253 252 253 255 258 262 265 268 268 269 269 269 268 267 265 263 261 259 258 258 259 260 260 260 260 258 258 257 258 259 259 257 257 257 255 255 254 253 252
249 245 243 242 240 238 236 236 238 239 239 239 237 236 236 234 233 234 233 241 251 246 244 247 247 245 246 246 246 247 250 255 263 266 258 250 248 249 252 256 261 264 265 266 268 268 268 269 270 269 267 265 262 260 259 258 259 260 260 260 259 257 256 257 258 257 254 254 255 255 254 252 251 250
248 244 241 241 241 240 236 235 235 235 237 238 237 236 235 234 234 234 232 236 250 252 249 249 252 249 243 240 240 243 247 251 256 261 259 252 249 249 252 259 263 263 263 265 268 267 266 267 268 269 269 267 265 263 261 260 259 260 260 261 260 259 258 257 256 253 251 251 253 254 253 251 249 248
248 243 241 240 240 240 237 233 233 233 233 234 235 235 234 234 234 232 231 234 242 251 250 248 249 246 241 242 244 247 250 254 258 259 256 253 251 252 258 265 267 265 264 265 268 268 267 267 267 266 265 264 264 263 263 262 262 262 262 261 260 260 259 256 253 251 250 250 251 252 252 251 249 248
250 244 240 240 239 238 235 232 231 232 231 230 232 233 233 234 235 232 230 232 237 248 251 248 247 245 243 246 249 251 254 257 259 257 252 251 251 254 262 267 267 267 266 267 267 268 268 268 268 266 263 262 262 262 263 263 264 263 263 263 262 260 258 256 253 250 250 250 250 250 250 249 248 246
253 246 241 240 239 236 233 231 231 231 232 231 231 234 234 234 234 231 230 231 234 243 250 248 246 246 246 248 250 251 252 253 253 251 247 247 250 256 262 264 265 267 269 268 267 266 266 266 267 266 264 262 261 262 263 264 264 264 264 263 262 260 259 257 254 251 250 249 248 249 248 247 246 245
255 250 245 241 238 234 231 231 232 231 232 232 232 233 234 232 231 230 229 229 231 237 244 247 247 247 247 248 249 247 245 245 245 244 244 247 251 257 259 261 263 266 269 269 267 266 266 266 266 265 264 262 261 263 264 265 267 267 265 263 260 259 258 256 253 250 247 246 246 247 247 245 243 244
256 252 248 242 237 233 232 232 232 231 232 232 232 231 231 229 227 228 227 227 229 234 241 244 245 245 244 244 245 242 240 239 239 240 244 247 251 254 257 260 263 266 269 270 269 268 267 266 265 264 262 260 260 262 263 265 269 269 267 263 259 256 255 253 249 245 243 242 243 244 244 242 241 242
259 253 250 246 239 234 234 234 234 233 233 234 232 230 229 226 224 225 226 225 226 231 237 241 241 242 243 242 243 242 238 237 238 238 240 244 249 252 256 260 265 268 270 271 271 268 266 265 263 262 261 259 259 261 262 265 269 271 267 260 255 253 250 247 244 241 240 241 242 242 242 241 240 241
262 255 253 252 245 239 237 237 235 235 235 234 233 229 227 224 221 222 223 223 224 227 232 236 237 239 240 239 240 238 231 226 230 233 234 240 250 254 257 261 266 269 271 271 270 267 264 262 261 261 261 259 258 259 261 263 267 271 266 255 248 246 244 242 241 240 241 241 242 242 241 240 240 239
266 257 253 252 248 243 241 240 238 237 236 234 232 229 226 222 219 219 220 221 221 224 228 232 232 233 235 234 232 228 220 218 227 233 231 237 249 256 262 265 266 266 268 268 266 264 263 263 263 261 260 259 257 258 260 261 265 270 263 248 240 239 239 240 241 242 243 244 244 243 241 240 239 237
267 260 254 251 248 245 243 242 241 240 239 236 233 230 226 221 217 216 216 217 219 221 224 226 225 226 229 230 228 226 225 226 229 229 225 233 247 255 261 267 267 265 264 262 262 264 265 266 264 261 259 258 255 254 255 258 263 268 259 242 235 236 237 240 242 244 246 246 244 241 239 238 237 235
267 261 256 252 248 245 243 241 241 241 241 239 236 232 229 224 220 217 215 214 216 220 224 224 221 220 225 228 227 226 227 228 228 227 227 230 237 240 244 260 269 267 262 255 256 263 267 267 265 263 261 259 254 251 250 253 257 260 250 237 233 234 235 237 241 243 244 243 240 237 235 234 233 231
268 263 258 254 251 247 243 241 241 241 241 241 238 234 231 228 225 222 219 216 215 217 222 223 219 218 223 226 226 223 223 225 226 226 228 228 229 231 231 237 251 260 260 251 251 261 267 267 265 263 262 260 255 249 245 247 250 249 238 229 229 232 234 235 236 236 235 235 234 232 231 230 229 228
264 259 255 253 251 247 244 242 241 241 241 241 240 236 232 230 228 226 224 223 221 220 220 222 221 219 220 223 225 225 224 223 220 217 221 227 228 227 229 236 246 255 258 250 246 259 266 265 262 261 261 260 255 247 241 242 247 248 240 230 227 229 231 233 234 233 230 229 229 229 228 226 225 225
300 279 267 258 253 250 248 246 243 242 241 240 238 234 231 230 228 227 225 223 223 223 222 223 225 224 222 224 227 228 226 223 221 221 224 228 228 229 237 246 252 255 256 251 245 255 264 262 255 254 256 258 254 241 234 236 241 244 243 235 231 230 230 230 231 232 232 230 229 228 228 226 226 227
17 359 325 297 278 268 263 257 252 247 244 242 237 229 225 225 225 224 224 222 221 222 224 225 228 229 228 228 229 228 228 229 233 236 239 242 241 238 242 248 250 250 253 248 238 242 256 251 243 245 250 254 249 232 225 230 232 231 233 233 231 227 224 224 224 225 227 225 222 223 228 231 228 223
25 21 7 352 325 294 277 269 262 255 249 244 237 224 216 217 219 220 222 223 222 222 224 226 229 231 231 231 231 230 231 236 241 240 239 239 235 228 231 239 241 244 247 239 226 228 245 239 229 240 252 251 240 225 218 218 218 219 222 225 226 221 218 218 219 218 215 213 213 212 216 221 216 207
23 25 23 21 13 354 322 289 271 261 250 238 227 217 209 208 212 216 219 221 222 222 223 226 229 230 231 231 231 231 233 240 240 228 220 218 213 209 217 231 233 235 238 231 223 222 234 232 223 233 251 249 242 233 221 207 206 216 220 222 225 223 221 221 220 219 217 214 213 210 207 208 206 204
22 26 28 29 27 22 12 345 297 272 251 231 218 212 206 202 204 210 213 214 216 219 221 223 225 226 226 228 229 231 234 236 230 220 215 213 207 205 215 225 225 231 237 230 218 212 219 223 214 210 221 232 239 240 227 205 203 211 214 217 223 224 224 225 223 222 222 218 212 209 207 207 208 210
22 28 29 29 29 30 30 26 13 343 267 229 219 212 205 200 202 205 205 204 207 210 213 215 217 218 219 222 226 228 229 226 224 224 223 217 207 204 212 216 214 221 235 222 210 204 207 209 201 193 192 202 223 231 225 210 205 208 209 212 218 221 223 228 228 226 225 223 216 211 210 210 212 215
21 27 28 27 26 27 33 36 35 33 38 196 209 205 199 197 199 200 198 198 199 203 206 208 210 212 213 215 219 221 222 224 225 226 223 218 212 207 204 206 208 210 218 211 207 205 204 202 199 195 194 197 202 209 213 210 206 209 214 215 215 215 216 222 225 222 218 218 216 212 210 212 214 216
21 28 29 28 26 25 30 37 40 42 46 60 87 141 186 197 197 192 191 192 194 198 200 201 204 207 209 212 217 220 224 227 223 216 213 214 214 211 207 206 207 207 207 202 203 202 195 193 197 195 194 197 185 183 198 207 209 212 216 218 219 216 213 214 215 212 206 203 204 205 206 210 215 220
15 25 30 31 29 27 28 34 39 42 45 50 55 63 105 184 203 201 195 192 191 191 192 192 195 199 203 207 212 217 220 219 213 207 206 208 209 211 215 213 208 210 218 220 207 203 199 197 197 193 192 192 176 173 185 199 210 214 215 219 221 217 213 213 208 201 194 188 188 195 200 207 215 219
3 11 22 31 32 28 28 32 37 41 45 49 50 54 67 96 151 188 196 197 195 192 187 185 188 191 193 196 198 201 204 206 204 202 202 204 206 208 213 215 215 219 225 226 217 212 211 208 201 195 195 191 173 171 181 184 199 210 212 217 220 214 210 211 206 196 188 184 185 193 195 192 193 194
356 1 10 24 31 28 28 35 40 40 42 45 49 53 58 71 92 111 137 166 180 182 178 175 179 184 185 189 192 195 199 201 200 198 197 202 208 212 212 212 215 220 223 225 224 221 218 215 207 201 199 196 184 176 180 179 188 200 203 208 216 215 209 206 203 198 191 186 189 196 199 192 182 179
1 4 10 20 28 25 26 35 43 46 44 42 46 54 57 62 73 81 85 93 103 121 133 134 141 156 167 177 183 186 187 186 184 187 192 198 207 214 217 217 216 217 218 220 225 231 227 216 206 202 203 204 201 191 180 176 183 194 195 197 208 218 216 209 205 202 195 192 193 197 203 206 202 199
4 9 13 19 22 20 19 26 35 46 52 47 44 51 56 56 61 68 74 78 74 72 83 94 100 110 124 138 149 155 163 172 175 179 185 192 200 206 208 208 210 213 213 210 213 225 224 213 206 205 204 205 207 205 197 188 183 193 203 204 205 217 223 219 215 211 204 199 198 200 205 212 215 217
359 3 6 15 22 21 20 23 27 38 53 56 53 55 58 59 60 62 66 72 72 68 72 78 83 90 99 108 119 127 132 144 156 169 183 193 200 202 199 193 189 191 199 202 203 205 205 204 208 210 203 200 205 211 210 206 200 199 211 216 211 211 226 225 220 219 217 212 208 208 209 213 219 224
358 0 4 17 27 26 24 26 30 35 46 57 62 63 64 64 65 65 66 69 70 71 73 74 75 79 82 85 95 103 98 92 98 121 162 182 183 182 179 172 168 170 177 191 197 192 185 192 207 216 209 203 205 209 208 209 212 213 219 226 222 220 227 228 221 220 220 218 220 224 221 218 219 224
1 2 6 14 20 23 25 25 28 33 40 49 59 64 67 67 68 69 72 72 71 75 81 77 71 72 74 71 74 82 81 76 77 86 108 142 152 152 150 143 149 163 164 159 171 174 169 178 200 209 207 204 207 210 205 205 211 216 221 230 234 232 234 237 233 226 221 216 219 226 232 231 228 226
13 10 10 10 9 11 19 22 24 28 33 41 51 60 68 71 70 70 74 78 79 83 89 87 78 75 75 66 62 69 73 72 72 74 83 107 122 128 131 120 110 120 126 120 139 165 167 174 190 199 204 209 214 218 214 212 218 219 218 223 231 233 235 237 235 232 228 222 216 215 224 236 237 233
23 18 15 13 10 11 14 18 23 30 36 41 46 54 65 72 74 72 72 78 86 91 93 94 90 84 82 77 70 70 72 72 71 71 79 102 119 123 124 119 108 104 105 100 102 130 154 172 181 179 180 193 197 196 205 216 227 224 216 214 221 227 231 233 231 229 229 225 219 214 217 232 240 238
29 24 20 16 14 14 13 13 19 29 40 49 53 56 57 59 67 74 73 73 82 92 96 100 101 100 99 98 94 89 85 80 77 75 80 100 119 123 121 119 116 112 108 100 94 100 115 147 168 165 155 150 156 162 176 193 205 210 209 206 208 212 217 221 220 220 218 217 217 218 217 223 236 240
31 28 27 24 21 21 21 20 22 27 33 42 54 63 61 54 54 64 71 69 71 78 88 99 108 113 116 117 113 108 100 93 91 89 86 90 109 122 123 120 119 118 113 105 97 96 99 107 133 151 149 141 141 139 128 124 129 145 175 192 192 191 189 187 190 197 206 213 217 218 217 220 226 228
31 26 25 23 23 26 28 30 31 33 36 39 41 48 57 58 53 55 65 77 78 73 72 80 97 110 117 120 121 119 111 102 101 106 105 102 113 130 132 132 131 128 124 118 110 102 94 89 92 120 133 133 144 155 133 124 121 119 133 170 178 175 173 174 179 185 195 206 210 206 205 212 215 208
31 27 22 22 25 29 33 37 39 41 45 48 47 44 42 42 40 41 49 76 103 105 96 83 79 98 114 124 129 128 127 128 128 134 139 142 151 159 154 148 143 139 136 133 131 131 131 130 138 169 175 166 160 139 111 109 105 80 90 170 182 182 176 174 174 174 179 188 187 180 185 200 208 202
33 36 38 39 40 39 41 44 46 48 52 56 58 57 56 56 53 48 47 51 60 101 178 230 251 252 241 224 212 205 203 188 177 173 174 174 178 182 177 168 161 158 155 153 153 156 159 157 154 164 178 179 170 155 131 116 106 30 44 152 168 175 176 176 176 172 172 174 173 172 181 193 196 186
47 50 51 51 49 47 47 49 51 53 55 58 61 61 60 61 62 60 59 59 57 53 45 358 292 280 275 266 254 234 204 192 187 184 186 189 195 199 197 192 187 180 171 170 175 175 171 167 162 159 162 167 168 166 153 139 147 186 192 167 160 156 154 156 161 162 161 164 165 165 171 178 178 175
58 58 56 55 53 52 51 51 53 53 53 55 57 57 56 57 57 56 56 57 56 53 50 46 41 23 331 291 269 245 210 194 193 197 201 204 206 208 209 209 206 198 189 188 189 184 178 176 173 168 167 172 179 183 175 159 160 164 166 167 169 170 169 168 168 168 166 166 167 165 164 167 171 176
60 59 58 57 56 55 53 52 52 52 52 52 52 53 52 51 49 47 47 46 45 42 39 38 39 41 35 20 351 297 264 255 244 226 218 222 224 220 217 215 213 208 203 201 196 186 182 183 179 175 179 187 194 208 223 196 175 159 150 154 158 161 167 173 177 181 183 184 184 183 182 183 184 185
60 59 57 57 57 56 55 53 51 51 51 51 51 51 50 49 47 45 43 41 39 38 35 32 32 31 30 31 35 31 324 305 307 295 265 258 258 248 237 231 226 219 212 210 206 196 191 189 184 182 188 196 201 209 218 214 201 187 169 161 157 154 154 155 156 164 173 182 189 195 199 206 213 212
58 57 56 56 57 57 56 54 53 52 51 50 50 49 48 47 47 45 43 41 39 36 34 32 30 27 25 27 32 32 17 351 340 329 312 302 292 279 268 262 255 243 229 222 219 209 198 194 192 191 196 203 205 206 212 220 221 214 205 200 200 203 212 221 214 190 171 171 185 196 194 191 195 195